Location: Shepherdstown, WV
(39.4326°N, 77.8042°W)
Time: 06:35:03
(UTC-04:00)

SR - Pass Details

Date: 08 August 2021
Orbit: 581 x 874 km, 66.7° (Epoch: 24 September)

Event Time Altitude Azimuth Distance (km) Brightness Sun altitude
Rises 05:38:47 0° 218° (SW) 3,440 - -7.6°
Exits shadow 05:40:28 - 220° (SW) 2,815 ? -7.4°
Reaches altitude 10° 05:41:20 10° 221° (SW) 2,490 ? -7.2°
Maximum altitude 05:47:03 60° 301° (WNW) 947 ? -6.2°
Drops below altitude 10° 05:52:29 10° 22° (NNE) 2,363 ? -5.3°
Sets 05:54:51 0° 26° (NNE) 3,251 ? -4.9°
